Location: Mexico
(19.4000°N, 99.1500°W)
Time: 23:38:15
(UTC-06:00)

ISS - Pass Details

Date: 16 May 2019
Orbit: 407 x 410 km, 51.6° (Epoch: 23 May)

Event Time Altitude Azimuth Distance (km) Brightness Sun altitude
Rises 20:59:40 0° 241° (WSW) 2,315 0.4 -25.0°
Reaches altitude 10° 21:01:59 10° 256° (WSW) 1,457 -0.5 -25.4°
Maximum altitude 21:04:42 24° 312° (NW) 888 -1.4 -26.0°
Enters shadow 21:05:44 20° 342° (NNW) 991 -1.4 -26.2°
